Kirksville, MO

10:59 AM CDT on May 24, 2017 (GMT -0500)
Kirksville Regional

Weather History for KIRK - October, 2012

Change the Weather History Date:

Thursday, October 18, 2012

  Actual Average Record
Temperature  
Mean Temperature 48 °F 52 °F  
Max Temperature 53 °F 63 °F 87 °F (1950)
Min Temperature 43 °F 42 °F 22 °F (1948)
Degree Days  
Heating Degree Days 17 13  
Month to date heating degree days 240 184  
Since 1 July heating degree days 376 291  
Cooling Degree Days 0 0  
Month to date cooling degree days 0 10  
Year to date cooling degree days 1300 937  
Moisture  
Dew Point 34 °F    
Average Humidity 65    
Maximum Humidity 92    
Minimum Humidity 38    
Precipitation  
Precipitation 0.13 in 0.12 in 1.75 in (1984)
Month to date precipitation 2.56 2.00  
Year to date precipitation 23.32 33.52  
Sea Level Pressure  
Sea Level Pressure 29.53 in    
Wind  
Wind Speed 14 mph (WSW)    
Max Wind Speed 26 mph    
Max Gust Speed 43 mph    
Visibility 10 miles    
Events Rain    
T = Trace of Precipitation, MM = Missing Value Source: NWS Daily Summary

Daily Weather History Graph

Daily Weather History Graph

Search for Another Location

Airport or City:

Trip Planner

Search our weather history database for the weather conditions in past years. The results will help you decide how hot, cold, wet, or windy it might be!

Date:

Astronomy

Oct. 18, 2012 Rise Set
Actual Time 7:24 AM CDT 6:25 PM CDT
Civil Twilight 6:56 AM CDT 6:52 PM CDT
Nautical Twilight 6:25 AM CDT 7:24 PM CDT
Astronomical Twilight 5:54 AM CDT 7:55 PM CDT
Moon 11:06 AM CDT (10/18) 9:00 PM CDT (10/18)
Length of Visible Light 11h 55m
Length of Day
11h 00m
Waxing Crescent, 14% of the Moon is Illuminated
Oct 18
Waxing Crescent
Oct 21
First Quarter
Oct 29
Full
Nov 6
Last Quarter
Nov 13
New

Hourly Weather History & Observations

Time (CDT) Temp. Windchill Dew Point Humidity Pressure Visibility Wind Dir Wind Speed Gust Speed Precip Events Conditions
12:55 AM 50.0 °F - 34.0 °F 54% 29.55 in 10.0 mi WSW 8.1 mph - N/A   Mostly Cloudy
1:55 AM 50.0 °F - 35.1 °F 57% 29.54 in 10.0 mi WSW 9.2 mph - N/A   Mostly Cloudy
2:35 AM 50.0 °F - 33.8 °F 54% 29.53 in 10.0 mi WSW 10.4 mph - N/A   Mostly Cloudy
2:55 AM 50.0 °F - 33.1 °F 52% 29.55 in 10.0 mi WSW 10.4 mph - N/A   Mostly Cloudy
3:07 AM 48.2 °F - 33.8 °F 58% 29.53 in 10.0 mi WSW 8.1 mph - N/A   Mostly Cloudy
3:16 AM 48.2 °F - 32.0 °F 54% 29.53 in 10.0 mi West 8.1 mph - N/A   Scattered Clouds
3:55 AM 48.0 °F - 28.9 °F 48% 29.53 in 10.0 mi WSW 9.2 mph - N/A   Clear
4:55 AM 46.9 °F - 28.0 °F 48% 29.53 in 10.0 mi WSW 8.1 mph - N/A   Clear
5:55 AM 46.9 °F - 27.0 °F 46% 29.54 in 10.0 mi WSW 6.9 mph - N/A   Clear
6:55 AM 45.0 °F 40.6 °F 27.0 °F 49% 29.54 in 10.0 mi WSW 8.1 mph - N/A   Clear
7:55 AM 45.0 °F 40.6 °F 28.0 °F 52% 29.53 in 10.0 mi WSW 8.1 mph - N/A   Partly Cloudy
8:55 AM 46.9 °F - 28.9 °F 50% 29.53 in 10.0 mi WSW 10.4 mph 17.3 mph N/A   Clear
9:55 AM 50.0 °F - 28.0 °F 43% 29.52 in 10.0 mi West 12.7 mph 25.3 mph N/A   Overcast
10:55 AM 51.1 °F - 28.9 °F 43% 29.52 in 10.0 mi West 13.8 mph 23.0 mph N/A   Overcast
11:55 AM 52.0 °F - 28.9 °F 41% 29.51 in 10.0 mi West 8.1 mph 29.9 mph N/A   Mostly Cloudy
12:55 PM 53.1 °F - 28.0 °F 38% 29.51 in 10.0 mi West 20.7 mph 32.2 mph N/A   Mostly Cloudy
1:55 PM 51.1 °F - 30.0 °F 44% 29.52 in 10.0 mi WSW 19.6 mph 33.4 mph 0.00 in   Overcast
2:55 PM 50.0 °F - 32.0 °F 50% 29.52 in 10.0 mi West 25.3 mph 42.6 mph 0.00 in Rain Light Rain
3:55 PM 46.9 °F - 37.0 °F 68% 29.54 in 10.0 mi WSW 12.7 mph 27.6 mph 0.00 in Rain Light Rain
4:55 PM 48.0 °F - 36.0 °F 63% 29.54 in 10.0 mi West 18.4 mph 34.5 mph 0.00 in Rain Light Rain
5:55 PM 45.0 °F 38.9 °F 37.9 °F 76% 29.54 in 10.0 mi WSW 12.7 mph 29.9 mph 0.00 in Rain Light Rain
6:12 PM 44.6 °F 37.4 °F 39.2 °F 81% 29.52 in 10.0 mi West 16.1 mph 31.1 mph 0.00 in Rain Light Rain
6:20 PM 44.6 °F 37.4 °F 39.2 °F 81% 29.52 in 10.0 mi WSW 16.1 mph 31.1 mph 0.00 in Rain Light Rain
6:55 PM 44.1 °F 37.1 °F 39.9 °F 85% 29.53 in 8.0 mi WSW 15.0 mph 27.6 mph 0.01 in Rain Light Rain
7:55 PM 44.1 °F 37.7 °F 41.0 °F 89% 29.52 in 7.0 mi WSW 12.7 mph 25.3 mph 0.03 in Rain Light Rain
8:55 PM 44.1 °F 39.0 °F 42.1 °F 93% 29.51 in 9.0 mi West 9.2 mph 24.2 mph 0.04 in Rain Light Rain
9:55 PM 45.0 °F 37.6 °F 42.1 °F 90% 29.51 in 6.0 mi West 17.3 mph 28.8 mph 0.03 in Rain Light Rain
10:55 PM 45.0 °F 37.6 °F 43.0 °F 93% 29.52 in 7.0 mi West 17.3 mph 24.2 mph 0.01 in Rain Light Rain
11:55 PM 44.1 °F 37.1 °F 42.1 °F 93% 29.52 in 10.0 mi West 15.0 mph 29.9 mph 0.00 in Rain Light Rain